When you browse on this site, cookies collect data to enhance your experience and personalize the content and advertising you see.
Visit our Privacy Policy to learn more. By continuing to use the site, you agree to this use of cookies and data.
EN

Hourly Weather Supovskiy

Today, 28 September, Monday

Time Temperature Precipitation Wind Pressure Humidity
00:00 +23°C° 0 mm 1 mps 760 mmHg 63%
01:00 +22°C° 0 mm 1 mps 760 mmHg 66%
02:00 +22°C° 0 mm 1 mps 760 mmHg 69%
03:00 +21°C° 0 mm 1 mps 760 mmHg 72%
04:00 +21°C° 0 mm 1 mps 761 mmHg 76%
05:00 +20°C° 0 mm 1 mps 761 mmHg 79%
06:00 +20°C° 0 mm 1 mps 761 mmHg 82%
07:00 +21°C° 0 mm 1 mps 761 mmHg 79%
08:00 +23°C° 0 mm 1 mps 762 mmHg 75%
09:00 +24°C° 0 mm 1 mps 762 mmHg 71%
10:00 +26°C° 0 mm 1 mps 762 mmHg 64%
11:00 +28°C° 0 mm 1 mps 762 mmHg 56%
12:00 +30°C° 0 mm 1 mps 762 mmHg 49%
13:00 +31°C° 0 mm 1 mps 762 mmHg 45%
14:00 +31°C° 0 mm 1 mps 761 mmHg 42%
15:00 +32°C° 0 mm 1 mps 761 mmHg 39%
16:00 +30°C° 0.1 mm 1 mps 761 mmHg 43%
17:00 +29°C° 0.1 mm 1 mps 761 mmHg 48%
18:00 +27°C° 0.1 mm 2 mps 761 mmHg 53%
19:00 +26°C° 0 mm 1 mps 761 mmHg 55%
20:00 +25°C° 0 mm 1 mps 761 mmHg 58%
21:00 +24°C° 0 mm 1 mps 761 mmHg 60%
22:00 +23°C° 0 mm 1 mps 761 mmHg 62%
23:00 +23°C° 0 mm 1 mps 761 mmHg 63%

Tomorrow, 29 September, Tuesday

Time Temperature Precipitation Wind Pressure Humidity
00:00 +22°C° 0 mm 1 mps 760 mmHg 64%
01:00 +20°C° 0 mm 2 mps 760 mmHg 65%
02:00 +20°C° 0 mm 2 mps 760 mmHg 66%
03:00 +19°C° 0 mm 2 mps 760 mmHg 67%
04:00 +19°C° 0 mm 2 mps 760 mmHg 68%
05:00 +18°C° 0 mm 2 mps 760 mmHg 69%
06:00 +18°C° 0 mm 2 mps 760 mmHg 70%
07:00 +19°C° 0 mm 2 mps 760 mmHg 65%
08:00 +21°C° 0 mm 2 mps 760 mmHg 60%
09:00 +23°C° 0 mm 2 mps 760 mmHg 54%
10:00 +26°C° 0 mm 2 mps 759 mmHg 49%
11:00 +28°C° 0 mm 2 mps 759 mmHg 44%
12:00 +30°C° 0 mm 2 mps 759 mmHg 38%
13:00 +30°C° 0 mm 2 mps 758 mmHg 37%
14:00 +31°C° 0 mm 2 mps 758 mmHg 35%
15:00 +31°C° 0 mm 2 mps 757 mmHg 34%
16:00 +30°C° 0 mm 2 mps 757 mmHg 37%
17:00 +28°C° 0 mm 2 mps 756 mmHg 41%
18:00 +27°C° 0 mm 2 mps 756 mmHg 44%
19:00 +26°C° 0 mm 3 mps 756 mmHg 46%
20:00 +25°C° 0 mm 3 mps 755 mmHg 48%
21:00 +24°C° 0 mm 3 mps 755 mmHg 51%
22:00 +22°C° 0 mm 3 mps 755 mmHg 52%
23:00 +22°C° 0 mm 3 mps 754 mmHg 54%

Day after tomorrow, 30 September, Wednesday

Time Temperature Precipitation Wind Pressure Humidity
00:00 +21°C° 0 mm 3 mps 754 mmHg 55%
01:00 +21°C° 0 mm 3 mps 754 mmHg 56%
02:00 +20°C° 0 mm 3 mps 754 mmHg 57%
03:00 +20°C° 0 mm 3 mps 754 mmHg 57%
04:00 +19°C° 0 mm 3 mps 753 mmHg 59%
05:00 +19°C° 0 mm 3 mps 753 mmHg 61%
06:00 +18°C° 0 mm 3 mps 753 mmHg 62%
07:00 +19°C° 0 mm 3 mps 753 mmHg 60%
08:00 +20°C° 0 mm 3 mps 753 mmHg 59%
09:00 +21°C° 0 mm 3 mps 752 mmHg 57%
10:00 +24°C° 0.1 mm 3 mps 752 mmHg 53%
11:00 +25°C° 0.1 mm 3 mps 752 mmHg 48%
12:00 +27°C° 0.1 mm 2 mps 752 mmHg 44%
13:00 +27°C° 0.2 mm 2 mps 752 mmHg 46%
14:00 +27°C° 0.2 mm 2 mps 752 mmHg 47%
15:00 +27°C° 0.2 mm 3 mps 752 mmHg 49%
16:00 +26°C° 0.8 mm 2 mps 752 mmHg 56%
17:00 +25°C° 0.8 mm 2 mps 752 mmHg 63%
18:00 +23°C° 0.8 mm 2 mps 752 mmHg 70%
19:00 +21°C° 0.6 mm 2 mps 752 mmHg 75%
20:00 +20°C° 0.6 mm 2 mps 753 mmHg 79%
21:00 +20°C° 0.6 mm 1 mps 753 mmHg 84%
22:00 +20°C° 0.2 mm 1 mps 753 mmHg 85%
23:00 +20°C° 0.2 mm 1 mps 753 mmHg 87%

1 October, Thursday

Time Temperature Precipitation Wind Pressure Humidity
00:00 +17°C° 0.2 mm 0 mps 753 mmHg 88%
01:00 +17°C° 0.4 mm 0 mps 753 mmHg 88%
02:00 +17°C° 0.4 mm 0 mps 753 mmHg 88%
03:00 +17°C° 0.4 mm 0 mps 753 mmHg 88%
04:00 +19°C° 0.5 mm 1 mps 754 mmHg 88%
05:00 +19°C° 0.5 mm 1 mps 754 mmHg 88%
06:00 +18°C° 0.5 mm 2 mps 754 mmHg 88%
07:00 +18°C° 0.4 mm 2 mps 754 mmHg 86%
08:00 +18°C° 0.4 mm 2 mps 754 mmHg 84%
09:00 +19°C° 0.4 mm 2 mps 754 mmHg 81%
10:00 +20°C° 0.2 mm 2 mps 754 mmHg 76%
11:00 +21°C° 0.2 mm 2 mps 754 mmHg 71%
12:00 +23°C° 0.2 mm 2 mps 754 mmHg 66%
13:00 +23°C° 0.2 mm 2 mps 754 mmHg 64%
14:00 +24°C° 0.2 mm 2 mps 754 mmHg 62%
15:00 +25°C° 0.2 mm 2 mps 753 mmHg 61%
16:00 +23°C° 0.2 mm 2 mps 753 mmHg 66%
17:00 +21°C° 0.2 mm 2 mps 753 mmHg 71%
18:00 +21°C° 0.2 mm 1 mps 753 mmHg 76%
19:00 +20°C° 0.1 mm 1 mps 754 mmHg 77%
20:00 +20°C° 0.1 mm 1 mps 754 mmHg 79%
21:00 +17°C° 0.1 mm 0 mps 754 mmHg 81%
22:00 +17°C° 0.1 mm 0 mps 754 mmHg 82%
23:00 +18°C° 0.1 mm 1 mps 754 mmHg 83%

2 October, Friday

Time Temperature Precipitation Wind Pressure Humidity
00:00 +18°C° 0.1 mm 1 mps 754 mmHg 85%
01:00 +18°C° 0 mm 1 mps 754 mmHg 85%
02:00 +16°C° 0 mm 1 mps 754 mmHg 86%
03:00 +16°C° 0 mm 1 mps 754 mmHg 86%
04:00 +16°C° 0 mm 1 mps 754 mmHg 87%
05:00 +16°C° 0 mm 1 mps 755 mmHg 87%
06:00 +15°C° 0 mm 1 mps 755 mmHg 87%
07:00 +18°C° 0.1 mm 1 mps 755 mmHg 83%
08:00 +19°C° 0.1 mm 1 mps 755 mmHg 79%
09:00 +21°C° 0.1 mm 1 mps 755 mmHg 74%
10:00 +23°C° 0 mm 1 mps 755 mmHg 68%
11:00 +25°C° 0 mm 1 mps 755 mmHg 62%
12:00 +27°C° 0 mm 1 mps 755 mmHg 55%
13:00 +27°C° 0 mm 1 mps 755 mmHg 53%
14:00 +28°C° 0 mm 2 mps 755 mmHg 50%
15:00 +28°C° 0 mm 2 mps 755 mmHg 48%
16:00 +27°C° 0.5 mm 1 mps 755 mmHg 55%
17:00 +25°C° 0.5 mm 1 mps 756 mmHg 61%
18:00 +24°C° 0.5 mm 1 mps 756 mmHg 68%
19:00 +23°C° 0.7 mm 1 mps 756 mmHg 71%
20:00 +22°C° 0.7 mm 1 mps 756 mmHg 74%
21:00 +19°C° 0.7 mm 0 mps 756 mmHg 78%
22:00 +20°C° 0.2 mm 1 mps 757 mmHg 79%
23:00 +20°C° 0.2 mm 1 mps 757 mmHg 81%

3 October, Saturday

Time Temperature Precipitation Wind Pressure Humidity
00:00 +19°C° 0.2 mm 1 mps 757 mmHg 82%
01:00 +19°C° 0.3 mm 1 mps 757 mmHg 84%
02:00 +19°C° 0.3 mm 1 mps 757 mmHg 86%
03:00 +19°C° 0.3 mm 1 mps 757 mmHg 87%
04:00 +18°C° 0 mm 1 mps 757 mmHg 89%
05:00 +18°C° 0 mm 1 mps 758 mmHg 90%
06:00 +18°C° 0 mm 1 mps 758 mmHg 91%
07:00 +19°C° 0 mm 1 mps 758 mmHg 88%
08:00 +21°C° 0 mm 1 mps 759 mmHg 84%
09:00 +22°C° 0 mm 1 mps 759 mmHg 81%
10:00 +23°C° 0 mm 1 mps 759 mmHg 74%
11:00 +25°C° 0 mm 1 mps 759 mmHg 67%
12:00 +26°C° 0 mm 2 mps 759 mmHg 60%
13:00 +27°C° 0 mm 2 mps 759 mmHg 56%
14:00 +27°C° 0 mm 2 mps 759 mmHg 53%
15:00 +27°C° 0 mm 2 mps 759 mmHg 49%
16:00 +26°C° 0.1 mm 1 mps 759 mmHg 54%
17:00 +24°C° 0.1 mm 1 mps 759 mmHg 59%
18:00 +23°C° 0.1 mm 1 mps 759 mmHg 64%
19:00 +22°C° 0 mm 1 mps 759 mmHg 66%
20:00 +22°C° 0 mm 1 mps 759 mmHg 68%
21:00 +21°C° 0 mm 1 mps 759 mmHg 71%
22:00 +20°C° 0 mm 1 mps 759 mmHg 72%
23:00 +20°C° 0 mm 1 mps 759 mmHg 73%
Show more